Theta_e
329 329 328 328 329 329 329 329 329 329 329 330 330 330 330 330 330 330 330 329 330 329 329 329 329 329 328 327 327 327 328 328 328 328 328 329 329 328 327 327 326 326 325 325 323 322 321 319 317 316 316 316 316 316 317 319 319 319 318 320 322 323 326 331 334 334 334 334 334 333 333 332 332 331 331 330 330 330 330 330 330 330 330 331 331 331 331 331 331 331 331 331 331 331 331 331 331 330 330 330 330 331 332
328 328 328 329 329 329 329 329 329 329 329 329 329 329 329 329 329 329 329 329 329 329 329 329 329 328 328 327 327 327 327 327 327 327 328 328 328 328 327 327 326 326 325 325 323 322 321 318 316 316 316 316 316 316 317 318 319 318 318 319 321 324 327 330 332 333 333 333 333 333 333 332 331 330 330 330 330 330 330 329 329 330 330 330 330 330 330 330 331 331 331 331 331 331 331 331 331 330 330 330 330 330 331
328 328 329 329 329 329 329 329 329 329 329 329 329 329 329 328 329 329 329 329 329 329 329 328 328 328 328 327 327 327 327 327 327 327 326 327 327 327 327 326 326 326 325 324 323 322 321 320 317 316 316 316 316 316 317 318 319 319 318 319 321 323 328 330 331 332 333 333 332 332 332 331 330 330 330 329 329 329 329 329 329 329 329 329 329 329 329 330 330 330 330 330 330 330 331 331 330 330 330 330 330 330 330
328 329 329 329 330 330 330 329 329 329 329 329 329 329 329 329 329 329 329 329 329 328 328 328 328 328 328 328 328 328 328 327 327 327 327 327 327 327 328 327 326 325 325 323 323 322 321 320 318 316 316 316 316 316 316 318 319 319 318 318 320 324 329 330 330 331 332 332 331 331 331 330 330 330 329 329 329 329 329 329 329 328 328 328 328 328 328 329 329 329 330 330 330 330 330 330 330 330 330 330 330 330 330
329 329 329 330 330 330 329 329 329 329 329 329 329 330 330 329 329 328 328 328 328 328 328 328 328 328 328 328 328 328 327 327 327 327 327 327 326 326 327 327 327 326 325 323 322 321 320 320 318 316 315 316 316 317 316 318 319 318 318 318 320 324 328 328 329 330 331 331 331 331 330 330 330 329 328 328 328 329 329 329 328 328 328 328 328 328 328 328 329 329 329 329 329 329 329 330 330 330 330 330 330 330 330
329 330 330 329 329 329 328 328 328 328 329 329 330 330 330 329 328 328 327 327 327 327 327 327 327 327 327 327 327 327 327 327 327 327 327 326 326 326 327 327 327 326 325 323 322 320 318 317 316 316 315 315 316 316 316 318 318 318 317 318 321 325 328 328 328 329 330 330 330 330 330 330 329 328 328 328 328 328 329 328 328 327 327 327 328 328 328 328 329 329 329 329 329 329 329 330 330 330 330 330 330 330 330
330 329 329 329 329 328 328 328 328 328 329 330 330 330 329 329 328 327 327 327 327 327 326 327 327 327 327 327 327 327 327 327 327 327 327 326 326 326 326 327 327 327 326 324 322 320 318 317 317 316 315 314 314 316 317 318 318 318 317 318 322 327 328 327 327 328 329 330 330 330 330 329 328 328 328 327 327 327 327 327 327 327 327 327 327 328 328 329 329 329 330 329 329 329 330 330 330 330 331 331 331 331 331
329 329 329 329 329 328 328 328 328 328 329 329 330 330 329 328 328 327 327 327 327 326 326 326 326 326 326 326 327 327 327 327 327 327 327 326 326 326 326 327 327 326 326 324 322 320 318 317 317 316 314 313 315 317 318 317 317 317 317 318 322 327 328 327 327 327 328 328 329 329 329 328 328 327 327 327 327 327 327 326 326 326 326 327 327 328 328 328 329 329 329 329 329 329 329 329 329 330 330 331 331 332 332
330 329 329 329 329 329 329 329 328 328 329 329 330 329 329 328 328 327 327 327 327 326 326 326 326 325 326 326 326 327 327 327 327 327 326 326 326 326 325 326 326 326 326 325 323 321 318 317 315 315 313 313 315 317 319 317 316 316 316 319 323 326 327 327 327 327 327 328 328 328 328 328 327 327 327 327 326 326 326 325 325 326 326 327 327 328 328 328 328 328 328 328 328 328 328 329 329 329 329 330 330 331 331
330 330 329 329 329 329 329 329 329 329 329 329 330 329 329 328 328 327 327 328 327 326 326 326 326 326 326 326 326 326 326 326 326 326 326 326 326 325 325 326 326 326 326 325 323 322 319 317 315 314 312 313 315 316 317 315 315 316 316 319 324 327 328 327 327 327 326 327 327 327 327 327 326 326 326 326 326 326 325 325 325 325 326 326 326 327 327 327 327 327 327 327 327 327 328 328 328 328 328 329 329 330 330
329 329 329 329 329 329 329 328 328 328 329 330 330 329 328 328 327 327 327 327 327 326 326 326 326 326 326 326 326 327 327 327 327 327 327 327 326 326 326 326 326 327 326 325 323 322 319 317 315 313 312 313 314 315 314 314 314 315 315 319 324 327 327 327 327 326 326 326 326 326 326 326 326 326 326 326 325 325 325 325 325 325 325 326 326 326 326 326 326 326 326 326 326 327 327 327 327 327 328 328 328 328 329
330 329 329 329 329 329 328 328 328 328 329 329 329 329 328 327 327 327 327 327 326 326 326 326 326 326 326 327 327 327 328 327 328 328 328 327 327 327 327 326 327 327 326 324 323 321 319 317 315 314 313 313 313 313 314 313 313 314 315 321 325 326 326 326 326 326 325 325 325 325 325 325 326 325 325 325 325 325 325 325 325 325 325 326 326 326 326 326 326 326 326 326 326 326 326 326 327 327 327 328 328 328 328
330 330 329 329 329 328 328 328 328 328 329 329 329 328 328 327 327 327 327 327 327 326 326 326 326 326 326 327 327 328 328 329 328 328 328 328 328 327 327 327 327 326 325 322 321 320 319 317 315 314 313 313 313 314 315 315 314 314 317 324 326 326 326 326 326 326 325 324 324 324 325 325 325 325 325 325 325 325 325 325 325 325 325 326 326 326 326 326 326 326 326 326 326 326 326 326 326 326 327 327 327 327 327
330 329 329 329 328 328 328 328 328 328 329 329 329 328 328 327 327 327 327 327 326 326 326 326 326 326 327 328 328 329 329 329 328 328 328 327 327 327 326 327 327 325 324 321 319 318 317 316 315 314 313 313 314 315 316 315 314 315 320 325 326 326 325 325 325 326 325 324 324 324 324 324 324 324 324 324 325 325 325 325 325 326 326 326 326 326 326 326 326 325 325 325 325 326 326 326 326 326 326 326 326 327 327
329 329 329 330 329 328 328 328 328 328 328 328 328 327 327 327 327 327 327 327 326 326 326 326 326 326 328 328 328 328 328 328 327 327 326 326 326 326 326 326 325 324 322 320 317 316 316 315 314 314 314 313 313 314 314 314 314 317 323 325 326 325 324 325 325 325 324 324 323 323 323 324 324 324 324 324 325 325 326 326 326 326 326 326 326 326 326 325 325 325 325 325 325 325 325 325 326 326 326 326 326 326 326
330 329 330 330 329 329 329 328 328 328 328 328 328 328 327 327 327 327 327 327 327 326 326 326 327 328 328 328 328 327 326 326 325 324 324 325 325 325 325 324 323 322 320 317 315 314 315 314 313 314 314 313 313 314 314 314 315 319 325 325 325 324 324 324 325 325 324 323 323 323 323 324 324 324 324 324 325 326 326 326 326 326 326 326 325 325 325 324 324 324 324 324 324 324 324 325 325 325 325 325 325 326 326
330 330 331 331 330 329 329 329 328 329 329 329 328 328 328 327 327 328 328 327 327 327 327 327 328 329 329 327 325 324 323 323 322 321 321 322 323 323 323 322 321 319 317 315 313 312 312 312 312 313 314 313 313 313 315 314 317 321 325 324 324 323 323 324 324 324 324 323 322 323 323 323 324 324 324 325 325 326 326 326 326 326 325 325 324 324 324 323 323 323 323 323 323 323 323 324 324 324 324 324 325 325 325
330 330 331 331 330 330 330 329 330 329 329 329 328 328 328 328 328 328 328 328 328 328 328 328 329 329 327 325 323 322 321 320 319 317 317 319 320 320 320 318 317 315 314 312 311 310 310 310 311 311 313 314 313 312 314 314 317 322 325 324 322 322 323 323 323 323 323 322 322 322 322 323 323 324 324 325 325 326 326 325 325 325 324 324 324 323 323 322 322 322 322 322 322 322 323 323 323 323 324 324 324 325 325
330 331 331 330 330 331 331 331 330 330 329 329 329 329 328 328 328 328 329 328 328 328 329 329 328 327 325 324 322 320 319 319 316 314 313 314 316 316 315 314 313 312 311 310 309 309 309 310 310 311 311 312 312 312 313 315 318 322 324 322 322 321 322 322 323 323 323 322 322 322 322 323 323 324 324 324 325 325 325 324 324 324 324 324 323 322 322 322 322 322 322 322 322 322 322 322 322 323 323 323 323 323 324
330 330 330 330 330 330 330 330 330 329 329 329 329 329 328 328 328 328 329 328 328 328 328 327 325 324 323 322 320 319 318 316 314 312 311 311 311 311 311 310 310 309 308 308 308 309 309 309 310 310 310 310 311 311 312 316 319 322 322 321 320 320 321 321 322 322 322 321 321 321 322 323 323 323 324 324 324 324 324 324 324 323 323 323 322 322 321 321 321 321 321 321 321 321 321 321 322 322 322 322 322 323 323
327 328 329 328 328 328 327 326 326 327 327 328 327 325 325 326 327 327 327 326 326 326 325 324 322 320 321 321 319 318 316 315 313 311 310 309 308 308 308 308 308 307 307 307 308 308 309 308 308 309 309 309 309 310 312 317 321 322 320 319 319 319 319 320 321 321 321 321 321 321 322 323 323 323 322 323 323 323 323 323 323 323 323 322 322 322 321 321 321 321 320 320 320 320 321 321 321 321 321 321 322 322 322
325 325 325 325 325 325 323 322 323 324 326 326 325 322 320 323 324 324 324 323 323 323 322 321 319 317 317 318 318 317 315 313 312 311 310 308 308 307 307 307 307 306 306 306 307 307 307 307 306 307 308 308 308 308 312 319 321 321 318 318 318 319 319 319 320 320 320 320 321 322 322 322 322 322 321 321 322 322 322 323 323 323 322 322 321 321 321 321 321 320 320 319 319 319 320 320 320 321 321 321 321 321 321
324 324 324 323 322 321 320 321 322 323 323 325 323 320 319 319 321 322 322 321 321 321 320 319 317 315 314 314 314 314 313 312 311 311 310 308 307 307 306 306 306 306 306 306 306 306 306 306 305 306 307 306 306 307 311 317 320 319 318 318 318 318 318 318 319 320 320 320 321 322 322 322 321 321 321 321 321 321 322 322 323 322 322 322 321 321 321 320 320 320 319 319 319 319 319 320 320 320 321 321 321 321 321
323 324 323 323 322 320 319 321 322 322 321 322 322 321 319 318 318 319 319 320 319 319 319 317 315 312 310 311 311 310 309 310 310 310 310 309 308 307 306 306 305 305 305 305 305 305 305 305 305 306 306 305 305 305 310 316 318 319 318 318 318 318 318 317 318 319 320 320 321 322 322 321 321 320 320 320 320 321 321 322 322 322 322 321 321 320 320 320 320 319 319 319 319 319 319 319 320 320 320 321 321 321 321
322 323 323 322 322 320 318 321 321 321 319 319 320 322 322 319 317 317 318 319 318 317 317 314 312 310 309 309 308 307 307 307 307 308 308 308 307 306 306 305 304 304 304 304 304 304 304 304 304 304 305 304 304 304 308 313 317 318 319 319 318 317 317 317 317 318 319 321 321 322 322 321 320 320 320 320 320 321 321 321 321 321 321 321 320 320 320 320 320 319 319 319 319 319 320 320 320 320 321 321 321 321 321
321 323 323 322 321 320 319 321 321 321 319 318 319 321 322 319 317 316 317 317 316 315 314 311 310 308 308 309 308 307 306 306 306 306 306 306 306 306 305 304 304 303 303 304 304 304 304 304 303 303 303 303 303 303 305 310 314 317 319 318 318 317 316 316 317 318 319 321 322 322 321 320 320 320 320 320 320 321 321 321 321 321 321 320 320 320 320 320 319 319 319 320 320 320 320 320 321 321 321 321 321 321 321
321 323 323 322 321 321 320 320 320 320 319 317 318 320 322 321 318 316 317 315 315 314 314 311 310 309 308 308 308 307 306 307 307 307 305 304 304 304 305 304 303 303 303 303 303 303 303 303 302 302 302 302 302 302 303 308 313 316 319 318 317 316 316 316 317 318 320 321 322 321 321 320 320 320 320 320 320 321 321 321 321 321 321 320 320 319 319 319 319 319 320 320 320 320 320 321 321 321 320 320 320 320 320
321 322 322 321 321 321 321 320 320 320 319 317 318 319 321 321 319 317 316 314 314 314 315 313 311 309 308 308 308 308 307 307 307 306 304 303 303 303 303 304 303 303 302 303 303 303 302 302 301 301 301 301 301 301 302 306 310 315 319 318 317 316 315 315 316 317 319 320 321 321 320 320 320 320 321 321 321 321 321 321 321 321 321 320 320 319 319 319 319 320 320 320 320 320 320 320 320 320 320 320 320 319 319
321 321 321 321 321 321 321 321 320 319 318 319 319 319 318 320 320 318 316 314 313 313 312 311 309 308 308 308 308 308 308 307 306 304 303 302 302 302 302 302 303 302 302 303 303 303 302 301 301 301 302 302 301 301 301 304 309 315 318 318 317 316 315 315 316 317 319 319 320 320 320 320 320 320 320 321 321 321 321 321 321 321 320 320 320 319 319 319 319 320 320 319 319 319 319 320 320 320 320 319 319 319 319
321 321 321 321 321 321 321 321 320 319 318 319 320 319 317 317 317 317 316 314 312 311 310 309 308 308 308 308 309 309 309 307 305 304 302 301 301 300 301 302 302 302 302 302 302 302 301 301 301 301 302 302 301 301 300 302 307 314 317 317 316 316 315 315 315 316 317 318 318 318 319 319 320 320 320 320 320 320 320 320 320 320 320 320 320 319 319 319 319 319 319 319 318 318 319 319 319 319 319 319 319 319 319
321 321 320 320 320 320 320 320 320 319 318 319 320 319 317 315 315 315 316 315 314 313 312 311 309 309 308 308 309 309 308 306 305 303 302 301 300 300 301 301 301 301 301 301 300 300 300 300 300 301 301 301 301 300 300 301 305 310 316 316 316 315 315 315 315 315 315 316 317 317 318 318 319 319 319 319 319 320 320 320 320 320 320 320 319 319 318 318 318 318 318 318 317 318 318 318 318 319 319 319 319 319 319
320 320 320 320 319 319 320 320 320 319 318 319 319 319 316 314 313 313 313 314 315 314 313 311 310 308 308 308 307 306 305 305 304 303 302 301 301 300 300 300 300 300 300 300 300 299 299 299 300 300 300 300 300 300 299 300 302 307 316 316 316 315 315 315 314 314 314 315 316 317 317 318 318 318 318 318 318 318 319 319 319 319 319 319 319 318 318 317 317 317 317 317 317 317 317 317 318 318 318 319 319 319 318
320 319 319 319 320 320 319 319 319 319 318 318 318 318 316 315 314 313 311 311 311 311 310 310 308 307 307 307 305 303 302 303 303 303 302 302 301 300 299 299 299 299 299 299 300 300 298 299 299 300 300 300 300 300 300 300 301 305 312 316 316 315 315 315 314 314 314 314 315 316 316 317 317 317 317 317 317 317 317 318 318 319 319 319 318 318 317 317 317 317 317 317 316 317 317 317 317 318 318 318 318 318 318
319 319 318 319 319 319 319 319 319 319 318 318 319 319 317 315 313 311 309 307 305 305 305 306 305 304 305 304 303 302 301 301 301 302 302 301 300 300 299 300 299 299 298 299 299 299 298 299 299 300 299 300 300 300 300 300 301 303 307 315 317 315 314 314 314 313 314 314 315 315 316 316 316 316 316 317 317 317 316 317 317 318 318 318 318 317 317 316 316 316 316 316 316 316 316 316 317 317 317 318 318 318 318
319 319 319 319 319 319 319 319 319 319 319 319 319 319 318 314 312 309 307 305 304 304 303 303 302 302 302 302 302 301 300 300 300 300 301 301 300 299 299 300 299 299 299 299 299 298 298 299 299 299 299 300 300 300 300 300 300 302 304 312 315 315 314 314 313 313 314 314 314 314 314 315 316 316 316 316 316 316 316 316 316 317 317 317 317 317 317 316 316 316 316 316 316 316 316 316 316 317 317 317 317 317 317
319 319 318 318 318 318 318 318 319 319 319 319 319 318 316 314 312 309 307 306 306 306 303 303 302 302 301 301 302 302 301 300 300 300 301 301 300 299 300 300 299 298 298 299 298 298 298 299 299 299 300 300 300 300 299 299 300 301 303 306 310 314 314 314 314 314 314 314 314 314 313 314 315 315 315 315 315 315 315 315 315 316 316 316 316 317 316 316 315 315 316 316 316 316 316 316 316 317 317 317 317 317 317
319 318 318 318 318 318 318 318 318 318 318 318 317 316 316 314 312 310 308 307 307 307 304 304 304 304 302 302 302 302 301 301 301 301 300 300 299 299 300 300 299 298 298 298 298 298 299 299 299 299 299 299 299 299 299 299 299 300 302 302 305 308 310 311 313 314 314 314 314 314 313 313 314 314 314 314 314 314 314 314 314 314 315 315 316 316 316 315 315 315 315 315 315 315 316 316 316 316 316 316 316 316 316
319 318 318 318 318 318 318 318 318 318 317 317 316 315 315 313 311 310 310 309 307 306 305 304 304 303 302 301 301 302 301 300 301 302 301 300 300 300 300 299 299 298 298 298 298 298 299 299 299 298 298 298 299 299 298 298 299 299 300 302 304 305 306 307 309 310 312 313 314 314 314 314 314 314 313 314 314 314 313 313 313 313 314 314 315 315 315 315 315 314 314 315 315 315 315 315 315 316 316 316 316 316 316
319 319 318 317 318 318 319 318 317 316 316 315 314 314 315 313 311 309 309 308 307 305 304 304 303 302 301 300 300 301 301 300 300 300 299 300 300 300 300 299 298 298 297 298 298 298 299 299 299 299 298 299 298 298 298 299 299 299 300 301 303 304 305 306 307 308 308 309 311 312 314 314 314 314 314 314 314 313 313 313 313 312 313 313 314 314 315 314 314 314 314 314 315 315 315 315 315 315 315 315 315 315 315
319 319 318 318 318 318 318 318 317 315 315 315 314 313 314 313 311 309 307 306 305 304 303 303 303 302 301 300 300 300 300 299 299 299 299 299 300 300 299 298 297 297 297 299 299 298 299 299 299 299 299 299 298 298 299 300 300 300 300 300 302 303 305 306 308 308 306 306 307 309 311 313 314 314 315 314 314 314 313 313 312 312 312 312 313 313 314 314 313 313 313 314 314 314 314 314 315 314 315 315 315 315 315
319 319 319 319 319 318 318 317 316 314 314 314 313 312 312 313 312 310 307 306 304 302 301 302 303 303 302 301 301 300 299 298 298 299 299 299 299 299 298 297 297 297 297 299 299 298 299 299 300 300 300 298 297 298 300 300 300 300 300 300 301 303 305 308 309 308 306 305 306 307 308 311 312 313 314 314 315 314 314 313 312 312 311 312 312 313 313 313 313 313 313 313 313 314 314 314 314 314 314 314 315 314 314
319 319 319 319 319 318 318 317 315 314 314 314 313 312 312 312 311 310 308 307 304 302 300 300 302 303 303 302 301 300 300 299 298 298 299 299 299 298 297 297 297 297 297 299 299 298 298 299 300 301 301 298 298 299 300 301 300 300 300 300 301 302 305 306 307 306 305 305 305 305 306 308 310 311 312 313 314 314 314 313 312 312 311 311 312 312 312 312 312 312 312 312 312 313 313 313 313 314 314 314 314 314 314
320 320 320 319 319 318 318 316 315 314 314 313 312 311 311 310 309 308 307 307 305 303 301 299 299 300 302 301 301 300 301 300 299 298 298 299 299 298 297 297 297 297 297 297 298 298 298 299 301 303 302 299 300 301 302 302 301 300 299 300 300 301 302 303 303 303 304 304 304 304 304 306 308 309 309 311 311 311 312 312 312 311 311 311 311 311 312 311 311 311 311 311 312 312 313 313 313 313 313 313 313 314 314
321 321 320 320 319 318 317 315 314 314 314 312 311 311 310 308 306 305 305 305 305 304 301 298 298 299 301 301 301 301 301 301 300 299 298 298 298 298 297 297 297 297 297 297 298 298 298 299 301 302 301 300 300 302 303 303 301 300 299 299 300 300 300 301 301 302 302 302 303 303 303 304 306 307 307 308 308 309 309 309 310 310 311 311 310 311 311 311 310 311 311 311 311 312 312 312 312 312 313 313 313 313 313
321 321 320 319 319 318 316 314 314 313 313 312 311 310 308 306 304 303 303 303 304 304 302 299 297 297 298 300 301 300 301 301 300 299 298 298 298 298 298 297 296 296 296 297 298 298 298 299 299 299 299 299 299 301 302 303 301 299 298 298 298 299 299 299 300 300 300 300 301 301 302 302 303 303 304 305 306 306 307 308 309 309 310 310 310 310 309 310 309 310 310 310 311 311 311 312 312 312 312 312 312 313 313
321 320 319 319 318 317 315 314 313 313 312 311 310 308 307 305 304 304 303 301 302 303 303 300 298 298 297 298 298 298 298 299 299 299 298 297 298 299 299 297 295 295 296 296 297 297 297 298 297 297 298 298 298 299 300 302 300 299 298 297 297 298 298 298 297 298 298 299 299 300 300 300 301 301 302 302 302 302 304 305 306 307 308 309 309 309 309 309 308 309 309 309 309 310 311 311 311 312 312 312 312 312 312
321 320 319 318 317 317 314 313 313 312 311 311 309 308 307 305 304 304 305 303 303 303 303 302 301 300 299 299 297 296 296 296 297 298 297 296 297 298 299 297 296 295 294 295 297 297 296 296 296 296 296 297 297 296 297 299 298 298 298 297 297 297 297 297 297 296 297 297 298 298 299 299 299 299 300 299 299 299 300 301 303 305 306 306 307 307 308 308 307 308 308 308 309 309 310 311 311 311 311 311 311 312 312
321 320 319 318 317 316 314 313 313 312 311 311 310 309 308 307 306 306 306 305 305 304 304 303 302 301 300 299 297 295 295 295 296 296 297 296 296 296 296 296 296 296 295 295 297 298 296 295 295 295 295 295 295 295 295 296 296 297 297 297 297 296 297 297 296 296 296 296 296 297 297 297 297 297 298 297 297 297 297 298 299 301 302 303 304 305 306 306 306 307 307 307 308 308 309 310 310 311 311 311 311 311 312
321 320 319 318 317 315 313 312 312 313 312 311 311 311 311 309 308 307 306 305 304 303 302 303 303 303 302 301 299 297 296 295 294 295 297 297 297 297 297 296 297 297 297 296 297 298 296 295 295 295 295 294 294 294 294 294 295 295 296 296 296 296 296 296 295 295 295 295 295 296 297 296 296 296 296 296 296 296 296 296 297 297 299 300 301 302 303 304 305 306 306 307 307 308 309 309 310 310 310 311 311 311 311
320 320 319 317 316 315 313 312 312 312 312 312 312 312 310 308 307 306 305 303 302 301 301 300 300 301 303 303 301 299 296 295 294 296 298 297 296 297 297 298 298 298 299 298 299 299 297 296 296 295 295 294 294 293 293 293 294 294 295 295 296 296 295 295 295 294 294 295 295 295 296 296 296 296 296 296 296 295 295 295 296 296 297 297 298 299 300 302 303 305 306 306 307 307 308 308 309 309 310 310 310 310 311
320 320 318 317 316 315 314 312 312 312 311 312 312 310 308 307 306 305 303 302 302 303 303 300 298 298 300 301 300 298 296 294 295 297 300 296 294 295 296 297 298 299 298 299 300 301 299 298 297 296 295 294 294 293 293 293 293 294 294 295 295 295 295 295 294 294 294 295 295 295 295 295 295 295 295 295 295 295 295 295 295 295 295 295 296 297 298 300 302 304 305 306 306 306 307 307 308 309 309 309 310 310 311
320 320 319 317 316 315 315 313 312 312 311 311 309 307 306 305 304 303 302 302 303 304 306 303 300 297 296 297 297 296 294 293 295 297 299 294 292 291 293 297 298 297 295 297 299 301 301 300 299 298 297 296 295 294 293 293 294 294 294 294 295 295 294 294 294 294 294 295 296 296 295 295 295 295 295 295 295 295 295 295 295 295 295 295 295 296 297 298 300 303 305 305 305 306 306 307 307 308 308 309 309 310 311
320 320 319 318 316 316 314 312 312 312 312 311 309 306 304 304 304 303 301 302 303 303 305 304 302 299 297 297 297 296 296 295 294 295 297 294 292 292 294 296 296 294 291 294 296 298 299 299 298 298 297 295 295 294 293 293 294 294 295 294 294 294 293 293 293 293 294 295 296 296 296 296 295 295 295 295 295 295 295 295 294 294 294 294 294 295 295 296 298 301 302 303 304 305 305 306 307 307 307 308 309 310 311
320 320 320 318 317 316 314 312 312 311 312 312 310 308 306 305 304 303 302 302 302 303 303 304 303 302 300 299 298 298 297 296 294 293 294 294 295 296 296 293 291 289 287 292 295 297 297 296 296 296 297 294 294 294 293 294 294 294 295 294 294 294 293 293 293 293 295 296 296 296 296 296 296 295 295 295 295 295 294 294 294 294 294 294 294 294 295 296 298 299 300 301 301 303 305 306 307 307 307 308 309 309 310
320 320 320 318 318 316 314 313 312 311 312 312 311 310 308 306 305 305 304 303 304 304 304 303 303 303 301 300 299 298 296 295 294 293 292 293 295 297 296 292 290 290 290 292 294 296 297 294 292 292 295 294 294 295 295 295 294 294 296 295 294 294 294 294 294 295 295 295 295 295 294 295 295 294 294 294 295 295 294 294 293 293 293 293 293 294 295 295 296 297 297 298 300 302 304 307 308 307 307 308 308 309 310
319 319 319 319 318 316 315 313 312 311 311 311 311 311 310 308 308 307 306 305 305 304 305 303 302 302 303 301 300 298 297 295 294 293 293 293 294 296 297 295 294 295 296 295 295 295 296 291 292 295 298 295 295 296 296 295 295 295 296 295 294 294 294 294 294 294 295 294 294 294 294 294 294 294 294 294 294 294 294 293 293 293 293 293 293 293 293 293 294 295 296 298 299 301 304 306 308 308 308 308 308 309 309
319 318 319 319 318 317 315 313 313 312 310 311 311 311 311 310 309 308 307 306 304 304 305 305 303 302 302 301 300 299 299 298 297 296 294 293 293 293 294 297 299 299 298 298 297 295 292 290 294 298 299 297 296 296 295 294 294 294 294 294 293 293 293 293 293 293 293 294 294 294 293 294 294 294 294 293 294 294 294 293 293 293 293 293 293 292 293 293 295 296 297 299 301 302 305 307 307 308 307 308 308 308 309
319 318 318 318 318 317 315 314 313 312 311 311 311 312 311 310 309 307 307 305 305 304 305 305 304 302 299 300 300 300 299 299 298 296 295 293 292 291 291 292 294 296 299 299 298 296 291 292 295 297 296 297 297 295 293 293 294 294 294 294 293 292 292 292 293 293 293 293 293 294 293 293 293 293 293 293 294 294 294 294 293 293 292 292 292 292 293 294 296 298 299 300 302 304 306 306 307 307 307 307 307 308 308
319 318 318 318 318 317 316 314 314 312 311 311 311 311 310 309 309 308 308 307 306 305 304 304 304 303 300 299 300 300 300 299 298 297 295 295 294 292 291 292 293 294 295 294 294 295 295 295 295 294 293 295 297 297 295 295 295 295 295 294 293 292 292 292 293 294 294 294 294 294 294 293 293 293 293 294 294 294 294 294 293 293 292 292 292 293 293 295 296 297 299 301 303 305 305 305 305 305 305 306 306 307 308
319 318 317 317 317 317 316 315 314 313 312 312 311 310 310 310 310 310 309 308 308 306 304 304 304 304 302 300 301 301 300 300 298 298 298 297 296 294 292 293 293 293 293 291 291 292 295 297 296 295 294 295 296 296 296 296 295 294 294 293 293 293 292 293 293 294 294 294 294 294 295 294 294 293 293 293 294 294 294 294 293 293 292 292 292 293 294 295 295 296 298 300 302 304 304 304 304 304 304 305 306 306 307
319 318 317 317 317 316 316 315 314 313 312 312 311 311 311 311 311 310 309 308 307 306 304 304 304 303 302 300 301 302 302 300 299 298 299 299 297 295 294 293 293 292 292 291 290 290 292 292 294 294 295 295 295 295 296 296 296 295 295 294 293 293 294 294 294 293 293 294 293 293 294 295 295 294 294 293 294 294 295 295 294 293 292 292 292 293 294 295 296 296 297 299 302 303 302 302 302 303 303 304 305 305 306
Wind_Speed
10 10 10 10 10 10 10 10 10 10 10 10 10 10 10 10 10 10 10 10 10 10 11 11 11 11 10 10 10 10 9 9 9 9 9 10 10 11 11 12 12 12 12 11 11 11 10 8 6 5 6 6 6 6 6 8 7 7 7 7 7 8 9 9 9 10 10 10 10 10 11 10 10 10 10 10 10 10 10 10 10 10 10 10 10 10 10 10 10 9 9 9 9 9 9 9 9 9 9 9 10 10 10
10 10 10 10 10 10 10 10 10 10 10 10 10 10 9 9 9 10 10 9 10 10 10 11 11 10 10 10 10 10 10 9 9 9 9 9 10 11 11 12 12 12 11 11 10 10 9 6 5 5 6 5 5 5 5 6 7 7 7 6 7 8 9 9 10 10 10 10 10 10 10 10 10 10 10 10 9 9 9 9 9 9 10 10 10 10 10 10 10 10 10 9 9 9 9 9 9 8 8 9 9 9 9
10 10 10 10 10 10 10 10 10 10 10 10 9 9 9 9 9 9 9 9 9 10 10 10 10 10 10 10 10 10 10 10 10 9 9 9 9 10 11 11 12 12 11 11 10 9 8 7 5 4 5 5 4 4 5 6 6 7 7 6 7 8 8 9 10 10 10 10 10 10 10 10 10 10 9 9 9 9 9 9 9 9 9 9 9 9 9 9 9 9 9 9 9 9 9 9 9 9 8 8 8 8 8
10 10 10 10 10 10 9 9 9 9 9 9 9 9 9 9 9 9 9 9 9 10 10 10 10 10 10 10 10 10 10 10 10 10 9 9 9 10 11 11 11 11 11 10 9 8 6 5 4 4 4 4 4 4 5 6 6 6 6 6 7 9 8 10 11 10 10 10 9 9 9 9 9 9 9 9 9 9 9 9 9 9 9 9 9 9 8 8 8 8 9 9 9 9 9 9 9 9 9 9 9 9 9
10 10 10 9 9 9 9 9 9 9 9 9 9 9 10 10 9 9 9 9 9 9 9 9 9 9 10 10 10 10 10 10 10 10 10 9 9 9 10 11 11 11 11 10 9 8 5 5 4 3 3 3 4 4 5 5 6 6 6 5 7 9 10 10 11 10 10 9 9 9 9 9 9 9 9 9 9 9 9 9 9 9 9 8 8 8 8 8 8 8 8 8 8 8 8 8 8 8 8 8 8 8 9
10 10 10 9 9 9 9 9 8 8 8 8 8 9 10 10 9 9 9 9 9 9 9 9 9 9 9 9 9 10 10 10 10 10 10 10 9 9 10 10 10 10 10 10 9 8 6 4 3 2 2 3 3 3 4 4 5 5 5 5 7 9 10 10 10 10 10 9 9 9 9 9 9 9 9 9 9 9 9 9 9 9 8 8 8 7 7 7 7 8 8 8 8 8 8 8 8 8 8 8 8 8 8
10 10 10 9 9 9 9 8 8 7 7 7 8 9 9 9 9 9 9 9 9 9 9 9 9 9 9 9 9 9 9 10 10 10 10 9 9 9 9 10 10 10 10 9 9 8 6 4 3 2 2 2 2 3 3 4 5 5 5 6 7 9 9 9 10 10 10 9 9 9 9 9 9 9 8 8 8 9 9 9 9 8 8 8 8 8 8 8 8 8 8 8 9 9 8 8 8 9 9 8 8 8 8
10 10 10 9 9 8 8 8 8 7 6 6 7 9 9 9 9 8 8 9 9 8 8 8 8 8 8 8 8 8 9 9 9 9 9 9 9 9 9 9 9 9 9 9 9 8 7 4 3 3 2 2 2 3 4 4 5 5 5 6 8 9 8 9 9 9 9 9 9 9 9 9 9 8 8 8 8 8 8 8 8 8 8 8 8 8 8 8 9 9 9 9 9 9 9 9 9 9 10 10 10 9 9
10 10 9 9 9 8 8 8 7 6 6 5 7 8 9 8 8 8 8 8 8 8 8 8 8 7 7 7 7 8 8 8 8 8 9 9 8 8 8 9 9 9 9 9 9 8 7 5 4 3 2 2 3 4 5 4 4 5 4 6 8 9 8 9 9 9 9 9 9 9 9 9 8 8 8 8 8 8 8 8 8 8 8 8 8 8 9 9 9 9 9 9 10 10 10 10 10 10 10 11 11 11 10
10 10 9 9 8 8 8 7 7 6 5 5 6 7 8 8 8 7 7 8 8 8 7 7 7 7 7 7 7 7 7 7 7 8 8 8 8 7 7 8 8 8 9 9 9 8 7 5 3 3 2 2 3 4 4 4 4 5 5 6 8 9 8 9 9 9 9 9 9 9 9 9 8 8 8 8 8 8 8 8 8 8 8 8 8 8 9 9 9 9 9 9 9 9 9 10 10 10 10 11 11 11 11
10 9 9 8 8 7 7 7 6 5 5 5 6 7 8 8 7 7 7 7 7 7 7 6 6 6 6 6 6 6 7 7 7 8 8 8 7 7 6 7 7 8 8 8 8 8 7 5 3 2 2 2 3 3 3 3 4 4 4 6 8 8 8 8 9 9 9 9 9 9 9 8 8 8 8 8 8 8 8 8 7 7 7 8 8 8 8 9 9 9 9 9 9 9 9 9 9 9 10 10 10 10 11
9 9 8 8 7 7 7 7 6 5 4 5 6 7 7 7 7 6 6 6 7 6 6 6 6 6 5 6 6 7 7 7 8 8 8 8 7 7 6 6 6 7 8 7 7 7 6 4 3 2 2 2 2 3 3 3 3 4 4 7 8 8 8 8 9 9 9 9 9 8 8 8 8 8 8 8 8 8 7 7 7 7 7 7 8 8 9 9 9 9 9 9 9 9 9 9 9 9 10 10 10 10 10
9 9 8 7 7 7 7 6 6 5 5 5 6 7 7 7 6 6 6 6 6 6 6 6 5 5 5 6 7 7 8 8 8 8 8 8 7 7 6 6 6 7 7 6 6 5 4 2 2 2 2 2 2 2 2 3 3 3 4 8 8 7 7 8 8 9 9 9 8 8 8 8 8 8 8 8 7 7 7 7 7 7 7 8 8 9 9 10 10 10 10 10 10 10 10 9 9 10 10 10 10 10 10
9 9 8 7 7 7 7 6 6 5 5 5 6 6 6 6 6 6 6 6 6 6 5 5 5 5 6 7 8 8 9 8 8 8 8 7 7 6 5 5 6 6 6 5 4 3 2 2 2 2 2 1 1 2 2 2 3 4 6 8 8 7 7 8 8 9 9 9 8 8 8 8 8 8 7 7 7 7 6 7 7 7 8 9 9 10 10 10 10 10 10 10 10 10 10 10 10 10 10 10 10 10 10
9 8 7 6 6 6 6 6 5 5 5 5 5 5 6 6 6 6 6 5 5 5 5 5 5 5 7 8 9 9 8 8 8 8 7 7 6 5 5 5 5 5 5 4 2 2 2 2 1 1 1 1 1 1 2 2 2 4 7 8 7 7 7 7 8 9 9 8 8 8 8 7 7 7 7 7 7 6 6 7 7 8 9 9 10 10 11 11 11 10 10 10 10 10 10 10 10 10 10 10 10 10 11
8 8 7 6 6 6 5 5 5 5 5 5 5 5 5 5 5 5 5 5 5 4 4 4 5 6 8 9 9 8 7 7 7 7 7 6 5 5 5 5 5 5 4 2 2 2 2 2 1 1 1 1 1 1 2 2 3 5 8 7 7 7 7 7 8 8 9 8 8 8 7 7 7 7 7 7 7 7 7 7 8 9 9 10 10 10 10 10 10 10 10 10 10 10 10 10 10 10 10 10 10 10 11
8 7 5 5 4 4 4 4 4 4 4 5 4 4 4 4 4 4 4 4 4 4 4 5 6 8 9 8 8 7 5 5 5 5 6 6 6 5 5 5 5 4 2 2 2 2 2 2 1 1 1 1 1 1 2 2 3 5 7 7 6 6 7 7 8 8 8 8 8 7 7 7 7 7 7 7 7 7 8 8 8 9 9 10 10 10 10 10 10 10 10 10 10 10 10 10 10 10 10 10 10 10 11
7 6 5 4 3 3 3 3 3 3 4 4 4 3 3 3 3 4 4 4 4 4 5 6 7 8 8 7 6 5 3 3 3 3 4 5 6 6 6 5 4 3 2 2 2 2 2 2 1 1 1 1 1 1 2 2 4 6 7 6 6 6 6 7 8 8 8 8 7 7 6 6 6 7 7 7 8 8 8 8 9 9 9 9 9 9 9 9 9 9 9 9 9 9 9 9 9 10 10 10 10 10 10
6 5 5 4 3 2 2 2 2 2 3 3 4 3 3 3 4 4 5 5 5 5 6 7 8 7 7 6 5 4 3 2 2 2 2 3 4 5 4 3 3 2 2 2 2 2 2 2 1 1 1 1 1 1 2 2 4 5 6 5 5 5 6 7 7 8 8 7 7 6 6 6 6 7 7 8 8 8 8 8 8 8 9 9 9 9 9 9 9 9 9 9 9 9 9 9 9 9 9 9 9 10 10
5 5 5 4 3 3 2 2 2 2 2 3 4 4 4 4 5 5 6 6 6 7 7 7 7 6 6 5 4 3 2 2 2 2 2 2 3 3 2 2 2 2 2 2 2 2 2 2 1 1 1 1 1 1 1 2 4 4 4 4 4 5 5 6 7 7 7 7 6 5 5 6 7 7 8 8 8 8 8 8 8 8 8 8 8 8 8 8 8 9 9 9 9 9 9 9 9 9 9 9 9 9 9
3 2 3 3 2 2 1 1 1 2 2 4 4 4 4 4 5 5 6 6 6 6 7 6 5 4 4 3 3 2 2 2 2 2 2 2 2 2 2 1 2 2 2 2 2 2 2 2 1 1 1 1 1 1 2 3 4 4 3 4 4 4 5 5 6 6 6 6 5 5 5 6 7 7 7 8 8 8 8 8 8 8 8 8 8 8 8 8 8 8 8 8 8 8 8 8 8 8 8 8 8 9 9
2 2 1 1 1 1 1 1 1 2 2 4 3 3 2 3 3 4 4 4 4 5 5 5 4 3 3 3 2 2 2 2 2 2 2 2 2 2 2 2 2 2 2 2 2 2 2 1 1 1 1 1 1 1 2 3 4 3 3 3 4 4 4 5 5 6 6 5 5 5 6 7 7 7 7 7 7 7 7 7 7 7 8 8 8 8 8 8 8 8 8 8 8 8 8 8 8 8 8 8 8 8 8
2 2 1 1 1 1 1 1 1 1 2 3 2 2 2 2 2 2 3 3 3 3 4 4 3 2 2 2 2 2 2 2 2 2 2 2 2 2 2 2 2 2 2 2 2 2 1 1 1 1 1 1 1 1 2 3 4 3 3 3 3 4 4 5 5 5 5 4 4 5 6 7 7 7 7 6 6 6 7 7 7 8 8 8 8 8 8 8 8 8 8 8 7 7 7 7 7 8 8 8 8 8 8
2 2 2 1 1 1 1 1 1 1 1 2 1 1 1 1 1 2 2 2 2 2 3 3 2 2 1 1 2 2 2 2 2 2 2 2 2 2 2 2 2 2 2 2 2 2 1 1 1 1 1 1 1 1 2 3 4 3 3 3 3 3 4 4 5 4 4 4 4 5 7 7 7 7 6 6 6 6 6 7 7 8 8 8 7 7 7 7 7 7 7 7 7 7 7 7 7 7 8 8 8 8 8
2 2 2 2 1 1 1 1 1 1 1 1 1 1 1 1 1 1 1 1 2 2 2 2 2 1 1 1 2 2 2 2 2 2 2 2 2 2 2 2 2 2 2 2 2 1 1 1 1 1 1 1 1 1 2 4 4 4 3 3 3 4 4 4 4 4 3 4 5 6 7 7 7 6 6 5 5 5 6 6 7 7 7 7 7 7 7 7 7 7 7 7 7 7 7 7 8 8 8 8 8 8 8
2 3 3 2 2 1 1 1 1 1 1 1 0 0 1 1 1 1 1 1 1 1 2 1 1 1 1 2 3 3 2 2 2 3 3 2 2 2 2 2 2 1 1 1 1 1 1 1 1 1 1 1 1 1 2 4 4 4 2 2 3 4 4 4 4 3 3 4 5 6 6 6 6 6 6 5 5 5 6 6 7 7 7 7 7 7 7 7 7 7 7 7 7 7 8 8 8 8 8 8 8 8 8
3 3 3 2 2 1 1 1 1 1 1 1 1 0 0 0 1 1 1 1 1 1 1 1 1 1 1 2 3 3 2 2 2 3 3 2 2 1 2 2 2 1 1 1 1 1 1 1 1 1 1 1 1 1 1 3 4 4 2 2 3 4 4 4 3 3 3 4 5 6 6 6 6 6 6 6 6 6 6 6 7 7 7 7 7 7 7 7 7 7 7 7 8 8 8 8 8 8 8 8 8 8 8
3 3 3 2 2 2 1 1 1 1 1 1 1 0 0 0 0 0 1 1 1 1 1 1 1 1 1 1 2 2 2 2 2 3 3 2 2 1 1 2 2 1 1 1 1 1 1 1 1 1 1 1 1 1 1 3 3 3 2 2 3 4 4 4 3 3 3 5 6 6 6 6 6 6 6 6 6 6 7 7 7 7 7 7 7 7 7 7 7 7 8 8 8 8 9 9 9 8 8 8 8 8 8
3 3 2 2 2 2 2 2 1 1 1 1 1 1 0 0 0 0 0 1 1 1 1 1 0 0 1 1 2 2 2 2 3 3 3 2 1 1 1 2 2 1 1 1 1 1 1 1 1 1 1 1 1 1 1 2 2 3 2 2 3 4 4 4 3 3 4 5 6 6 6 6 6 6 6 6 7 7 7 7 7 7 7 7 7 7 7 7 8 8 8 8 9 9 9 9 9 9 8 8 8 8 8
4 3 3 2 2 2 2 2 2 1 2 1 1 1 1 1 0 0 0 0 1 1 1 1 1 1 1 1 2 2 2 2 2 2 2 2 2 1 1 1 2 1 1 1 1 1 1 1 1 1 1 1 1 1 1 1 2 2 2 2 3 4 4 4 3 3 4 5 5 5 6 6 6 6 6 7 7 7 7 7 7 7 7 7 7 7 7 8 8 8 9 9 9 9 9 9 9 9 8 8 8 8 8
4 4 3 3 3 2 2 2 2 2 2 2 1 1 1 1 1 1 0 0 0 0 0 1 1 1 1 1 1 2 1 2 2 2 2 2 2 2 2 1 1 1 1 1 1 1 1 1 1 1 1 1 1 1 1 1 2 2 1 2 4 4 4 4 4 4 4 4 5 5 5 5 6 6 7 7 7 7 7 7 8 8 8 8 8 8 8 8 8 8 9 8 8 8 8 8 8 8 8 8 8 8 8
4 4 3 3 3 3 3 2 2 2 2 2 2 1 1 1 1 1 1 1 1 0 0 1 1 1 1 1 1 1 1 1 1 1 2 1 2 2 2 2 1 1 1 1 1 1 1 1 1 1 1 1 1 1 1 1 1 1 1 2 3 4 3 3 4 4 4 4 5 5 5 5 6 6 6 7 7 7 7 8 8 8 8 8 8 8 8 8 8 8 8 8 8 8 8 8 8 8 8 8 8 8 8
4 4 4 4 4 4 3 3 3 3 2 2 2 2 1 1 1 1 1 1 1 1 0 1 1 1 1 1 2 1 1 1 1 1 1 1 1 1 1 1 1 1 1 1 1 1 1 1 1 1 1 1 1 1 1 1 1 1 1 1 3 3 3 3 3 4 4 4 4 5 5 5 5 6 6 6 7 7 7 7 8 8 8 8 8 8 8 8 8 8 8 8 8 8 8 8 8 8 8 8 8 8 8
5 4 4 4 4 3 3 4 4 3 2 2 2 2 2 2 2 2 2 2 2 2 1 2 2 2 1 2 2 2 1 1 1 1 1 1 1 1 1 1 1 1 1 1 1 1 1 1 1 1 1 1 1 1 1 1 1 1 1 0 2 3 3 3 3 3 4 4 4 4 5 5 5 5 6 6 6 7 7 7 7 8 8 8 8 8 8 8 8 8 8 8 8 8 8 8 8 8 8 8 8 8 8
5 5 5 4 4 4 4 4 4 3 2 2 2 2 3 3 2 2 2 3 3 2 2 2 2 2 2 2 2 2 2 1 1 1 1 1 1 1 1 1 1 1 1 1 1 1 1 1 1 1 1 1 1 1 1 1 1 1 1 1 0 1 2 2 2 3 3 3 4 4 4 4 5 5 5 5 6 6 7 7 7 8 8 8 8 8 8 8 8 8 8 8 8 8 8 8 8 8 8 8 8 8 8
5 5 5 4 4 4 4 4 3 3 3 2 2 2 3 3 3 2 2 2 2 2 2 2 3 2 2 2 2 2 2 1 1 1 1 1 1 1 1 1 1 1 1 1 1 1 1 1 1 1 1 1 1 1 1 1 1 1 1 1 1 1 1 1 2 2 3 3 3 3 4 4 4 4 5 5 5 6 6 7 7 7 8 8 8 8 8 8 8 8 8 8 8 8 8 8 8 8 8 8 8 8 8
5 5 4 4 4 4 4 4 3 3 3 2 2 2 3 2 2 2 2 2 2 2 3 3 3 2 2 1 1 1 1 1 1 1 0 0 0 0 1 1 1 1 1 1 1 1 1 1 1 1 1 1 1 1 1 1 1 1 0 0 1 1 1 1 2 2 3 3 4 4 4 3 3 4 4 4 5 5 6 6 7 7 7 7 8 8 8 8 8 8 8 8 8 8 8 8 8 8 8 8 8 7 7
5 5 4 4 4 5 5 4 3 3 3 2 2 2 3 2 2 2 2 2 2 2 3 2 2 2 2 1 1 1 1 0 1 1 0 0 0 0 1 1 1 1 1 1 1 1 1 1 1 1 1 1 1 1 1 1 1 1 0 0 0 0 1 1 1 2 2 3 4 4 4 4 3 3 3 4 4 4 5 6 6 7 7 7 7 8 8 8 8 8 8 8 8 8 8 8 8 8 8 7 7 7 7
5 5 5 4 5 5 5 4 3 3 3 3 2 2 3 3 2 2 2 2 2 2 3 3 2 2 1 1 1 0 1 0 0 0 0 0 0 0 1 1 1 1 1 1 1 1 1 1 1 1 1 1 1 1 1 1 1 1 1 0 0 0 0 0 1 1 1 2 3 4 5 4 4 3 3 3 3 4 4 5 5 6 7 7 7 8 8 8 8 8 8 8 8 8 8 8 8 8 8 7 7 7 7
6 5 5 5 5 5 4 4 4 4 3 3 2 2 3 3 3 3 2 2 2 2 2 3 3 2 1 1 1 1 1 1 0 0 0 0 0 0 1 1 1 1 1 1 0 0 1 1 1 1 1 1 0 0 0 1 1 1 1 1 0 0 0 0 0 0 1 1 1 2 4 4 4 4 4 3 3 4 4 4 5 6 6 7 7 7 8 8 8 8 8 8 8 8 8 8 8 8 8 7 7 7 7
6 6 5 5 5 5 4 4 4 4 3 3 3 3 3 3 3 3 3 3 2 2 1 1 2 3 3 2 1 1 1 0 0 0 0 0 0 1 1 1 1 1 1 1 1 1 1 1 1 1 0 0 0 0 1 1 2 2 1 1 1 1 0 0 0 0 1 1 1 1 2 3 4 4 4 4 4 4 4 5 5 5 6 6 7 7 7 8 8 8 8 8 8 8 8 8 8 8 7 7 7 7 7
7 6 6 6 5 4 4 5 4 4 3 3 3 3 3 3 3 3 4 4 3 2 1 0 1 2 2 2 1 1 1 1 0 0 0 0 0 1 1 1 1 1 1 1 1 1 1 1 1 0 0 0 0 1 1 2 2 2 2 2 1 1 1 0 0 0 0 0 0 1 1 2 3 4 4 4 4 4 5 5 5 5 6 6 7 7 7 7 8 8 8 8 8 8 8 8 8 7 7 7 7 7 7
7 7 6 6 5 4 4 4 4 4 3 3 3 3 3 3 2 2 3 4 3 3 2 1 0 0 1 2 2 1 1 1 1 0 0 0 0 0 1 1 1 1 1 1 1 1 1 1 1 0 0 1 1 1 2 2 2 2 2 2 2 1 1 1 1 1 0 0 0 0 0 1 2 3 3 3 4 4 4 5 5 5 5 6 6 7 7 7 7 8 8 8 8 8 8 8 8 7 7 7 7 7 7
7 7 7 6 5 4 4 4 4 3 3 3 3 3 3 2 2 2 2 3 3 3 2 1 1 0 0 1 2 2 2 1 1 1 0 0 0 0 0 1 1 1 1 1 1 1 1 1 1 0 0 0 1 1 2 2 2 2 1 1 1 1 2 1 1 1 1 1 0 0 0 0 1 2 2 3 3 3 4 4 5 5 5 5 6 6 7 7 7 7 8 8 8 8 8 8 8 8 7 7 7 7 7
7 6 6 6 5 5 5 5 4 3 3 3 3 3 3 3 3 3 2 2 2 2 2 1 1 1 0 0 1 1 1 1 1 1 1 0 0 1 1 2 2 2 1 1 1 1 1 1 0 0 0 0 1 1 1 2 2 2 1 1 1 1 2 2 1 1 1 1 1 1 1 1 1 1 1 2 2 2 3 4 4 5 5 5 5 6 6 6 7 7 7 8 8 8 8 8 8 8 8 7 7 7 7
7 6 6 6 6 5 5 5 4 4 3 3 3 3 3 3 3 3 3 2 2 2 3 2 2 1 1 1 1 1 1 1 1 1 1 1 1 1 2 2 2 2 2 1 1 1 1 1 1 0 0 1 1 1 1 1 1 1 1 1 1 1 2 2 2 2 1 1 1 1 1 1 1 1 1 1 1 2 3 4 5 5 5 5 5 6 6 6 6 6 7 7 8 8 9 8 8 8 8 8 7 7 7
7 7 6 6 6 6 5 5 4 4 4 4 4 4 4 4 4 5 5 5 4 3 3 3 3 2 1 2 2 2 1 1 1 1 1 1 1 2 2 2 2 1 1 1 1 1 1 1 1 1 1 1 1 1 1 1 1 1 1 1 1 2 2 2 2 2 2 1 1 2 2 2 2 2 2 2 2 2 2 3 4 5 6 6 6 6 6 6 6 6 6 7 8 8 9 9 9 8 8 8 8 7 7
7 7 6 6 6 6 5 5 5 4 4 5 5 5 6 5 6 6 6 5 4 3 2 3 3 2 2 1 1 1 1 1 1 1 1 1 1 1 1 1 1 1 1 1 1 1 2 1 1 1 1 1 1 1 1 1 1 1 1 1 2 2 2 3 3 2 2 2 2 2 2 3 3 3 2 2 2 2 2 2 3 5 6 7 7 7 7 6 6 6 7 7 8 8 9 9 9 9 9 8 8 8 8
8 7 6 6 6 6 5 5 5 5 5 5 5 6 7 6 7 6 6 5 3 3 2 1 2 2 2 2 1 1 1 1 1 1 1 1 1 1 0 1 1 1 1 1 1 1 2 1 1 1 1 1 1 1 1 1 1 1 1 2 2 2 3 3 3 3 2 2 3 3 3 3 3 3 2 2 2 2 2 2 2 3 4 6 7 7 7 7 7 7 7 7 8 9 9 9 10 9 9 9 8 8 8
8 7 6 5 6 6 5 6 6 5 5 5 5 5 5 5 6 6 6 4 3 3 2 1 1 0 2 2 2 1 1 1 1 1 1 1 1 1 1 0 0 0 1 0 0 1 1 1 1 1 2 1 1 1 1 1 1 1 1 2 2 3 3 3 3 2 2 3 3 4 4 3 3 2 2 2 2 2 2 2 2 2 3 4 5 5 5 6 7 7 8 8 8 9 9 10 10 10 10 9 9 8 8
8 8 7 6 6 6 6 6 6 6 5 5 4 4 4 5 6 6 6 6 5 4 3 2 1 1 0 1 1 1 1 0 1 1 1 1 0 0 0 0 0 0 1 0 0 0 0 0 0 1 1 1 1 1 1 1 1 1 1 2 2 3 3 3 2 2 2 3 3 3 3 3 2 2 2 1 1 2 2 2 2 2 2 2 2 3 3 4 5 7 8 8 9 9 9 10 10 10 10 9 9 9 9
9 9 8 7 7 6 6 6 6 6 6 5 4 3 4 5 6 5 5 6 6 6 4 3 2 1 1 1 1 1 1 0 1 1 1 2 1 1 0 0 0 0 1 0 1 1 1 1 0 0 0 1 1 1 2 1 1 1 2 2 2 3 2 2 1 1 1 2 2 2 2 2 2 1 1 1 1 2 2 2 1 1 1 1 1 2 2 3 5 6 8 9 9 9 9 10 10 10 10 10 9 9 9
10 10 9 7 7 6 5 6 6 7 6 5 5 4 4 5 5 5 4 5 5 5 4 4 3 2 1 1 1 1 1 0 1 1 1 2 2 1 0 0 0 0 1 1 1 2 2 1 1 1 0 1 1 1 1 1 0 1 1 2 2 2 2 1 1 1 1 2 2 2 1 1 1 1 0 1 1 1 1 1 1 1 1 1 1 1 2 3 5 7 8 8 8 9 9 9 10 10 10 10 10 10 9
11 11 11 8 7 6 5 6 6 7 7 6 6 6 5 6 6 6 6 5 5 4 4 4 4 3 2 2 1 1 1 1 0 1 0 1 2 2 1 1 1 0 0 1 1 1 2 1 1 1 1 0 1 1 0 0 0 1 1 1 2 2 1 1 1 1 2 2 2 1 1 1 0 0 0 0 0 1 1 1 0 0 0 0 1 1 1 2 4 5 6 6 7 8 8 9 9 10 10 9 9 9 9
12 12 11 10 8 7 6 7 7 6 6 6 5 6 6 7 7 7 7 8 8 7 6 4 4 4 3 3 2 2 2 1 0 0 0 1 1 1 2 2 1 0 1 1 1 1 0 1 1 2 2 0 1 1 2 1 1 1 1 1 1 1 1 1 1 1 2 1 1 0 0 1 1 1 1 1 1 1 0 0 1 1 1 1 1 1 1 2 3 3 3 4 5 6 7 9 9 9 9 9 9 9 9
11 11 11 10 10 9 7 8 7 7 6 5 5 5 6 6 7 8 8 9 9 9 8 6 5 5 4 3 3 3 2 1 1 0 0 0 1 0 1 2 2 1 1 1 1 1 1 1 1 1 1 1 1 2 2 1 1 1 1 1 1 1 1 1 1 1 1 1 1 1 1 1 1 1 1 1 1 1 1 1 1 1 1 1 1 1 1 1 1 1 1 2 3 4 6 8 8 8 8 9 9 9 9
10 11 12 11 11 11 9 8 7 7 6 6 6 6 6 6 6 7 7 8 8 9 9 7 6 6 4 3 3 4 3 2 2 1 0 0 1 1 0 1 1 1 1 1 1 0 1 0 1 1 1 1 1 1 1 1 1 2 2 2 1 1 1 1 1 1 1 1 1 1 1 1 1 1 1 1 1 2 2 1 1 1 1 1 1 1 1 1 1 1 1 1 1 2 5 6 7 7 8 8 9 9 10
10 10 12 12 12 11 10 8 7 7 6 7 6 5 5 5 5 6 7 8 9 8 9 7 6 5 4 3 3 3 3 3 3 2 1 0 1 1 1 1 1 1 1 1 0 1 2 1 1 1 0 0 1 1 0 1 2 2 2 2 1 1 2 2 2 2 2 2 2 1 1 2 2 2 2 2 2 1 2 2 2 1 1 1 1 1 1 1 1 1 1 1 1 2 4 5 6 7 7 8 9 10 10
11 11 12 11 12 12 11 9 8 7 7 7 6 5 5 6 6 7 7 8 9 9 8 7 6 5 5 4 3 3 4 4 4 3 2 1 0 1 1 1 1 1 2 1 1 0 2 1 1 0 0 1 1 1 1 1 1 2 2 2 2 2 2 3 3 3 3 3 2 2 2 2 3 3 2 2 2 1 2 2 2 2 1 1 1 1 1 1 1 1 1 1 2 3 4 5 5 6 7 8 9 10 11
12 11 11 11 12 12 10 9 8 8 7 7 6 6 6 7 7 7 6 7 8 8 8 8 7 5 4 5 5 4 4 4 4 3 3 2 1 1 1 1 1 2 2 2 1 1 1 1 1 1 1 1 1 1 1 1 1 1 2 2 2 2 2 3 3 3 3 3 3 3 3 3 3 3 2 2 2 1 1 2 2 2 1 1 1 1 1 1 1 1 1 1 2 3 3 4 5 6 7 9 10 10 11
12 11 10 10 11 11 10 9 8 8 7 7 7 6 7 7 7 7 6 6 7 7 8 7 6 4 4 4 5 5 4 4 4 4 3 3 2 1 2 1 1 1 2 2 1 1 1 1 0 1 1 1 1 1 2 1 1 1 2 2 2 2 3 3 3 3 3 3 3 3 3 3 3 3 2 2 2 2 1 2 2 2 1 1 1 1 0 1 1 1 1 1 1 2 3 4 5 6 7 8 10 11 12
Wind_Direction
116 118 120 120 119 117 114 112 109 105 102 98 95 93 91 90 89 87 86 84 82 81 80 79 79 79 79 78 77 77 76 76 76 76 77 79 80 80 78 76 75 75 74 73 70 66 62 57 52 45 42 38 31 26 24 22 18 12 5 1 356 348 337 348 9 28 34 37 40 41 42 40 38 36 34 31 29 27 26 25 23 22 21 20 19 20 20 21 22 22 23 22 23 24 26 27 27 25 21 18 16 14 13
122 124 125 123 121 118 116 114 111 108 105 102 100 98 96 95 92 90 88 85 83 81 79 79 79 79 79 79 79 79 78 78 77 77 78 80 81 82 81 78 76 75 74 74 72 69 65 60 53 45 43 38 31 25 21 18 14 9 3 359 351 342 331 2 19 29 33 36 38 39 40 39 37 35 33 31 29 28 27 27 25 23 21 20 19 18 18 18 19 19 19 19 19 20 22 23 24 23 22 19 15 13 12
128 129 127 125 122 119 117 114 112 110 108 107 105 104 102 98 95 91 89 86 84 82 81 80 80 80 80 80 80 79 79 78 78 79 79 81 83 84 84 80 77 75 74 74 72 70 67 64 56 44 40 35 29 23 18 14 11 7 3 357 348 343 344 10 22 28 32 34 37 38 38 38 36 35 33 31 29 28 30 30 28 26 23 21 20 19 18 18 18 18 18 17 17 17 18 19 19 19 20 17 14 12 10
132 131 128 125 121 118 116 114 112 111 110 111 110 109 104 98 93 89 86 84 83 82 82 82 82 81 79 79 78 78 77 78 78 79 80 82 84 86 87 84 80 77 74 73 71 69 66 62 55 45 37 30 24 19 14 11 8 5 2 354 343 343 1 22 26 26 29 32 35 37 38 37 36 34 32 30 28 27 30 32 31 29 26 24 22 21 19 18 18 18 18 18 17 16 17 16 16 16 16 13 10 8 7
135 131 127 123 120 118 116 114 114 113 114 115 114 111 104 98 93 89 86 85 85 85 85 84 82 80 78 77 76 75 76 76 77 79 80 82 84 86 88 85 82 79 75 73 70 68 67 61 55 45 33 26 21 16 10 6 4 1 359 350 340 344 6 26 28 25 26 30 33 36 38 37 35 33 31 29 27 27 29 31 31 29 27 25 23 22 20 19 18 19 19 19 18 17 16 16 15 14 13 12 10 7 5
135 131 127 123 121 119 118 117 117 117 119 120 117 112 105 99 95 91 90 89 88 88 87 85 82 79 76 74 73 73 73 74 76 78 80 82 83 85 86 85 84 80 76 73 69 67 66 61 56 45 27 20 16 12 5 2 360 358 354 346 340 344 360 24 28 24 24 27 31 34 36 36 34 32 30 28 26 26 27 29 29 28 26 23 22 21 21 20 20 20 20 20 20 18 17 16 15 14 11 11 10 8 7
135 131 128 126 126 125 123 122 122 122 123 123 118 112 106 101 98 96 94 93 92 91 89 86 83 80 76 73 71 70 70 71 74 77 80 82 83 83 83 83 82 80 76 72 68 65 63 59 54 45 29 12 3 0 359 357 356 354 349 343 339 343 358 21 27 25 23 26 29 32 34 34 33 31 29 28 27 27 28 27 26 25 23 21 19 19 21 21 21 21 21 21 20 19 18 16 15 12 10 10 11 12 12
135 133 132 132 132 131 128 126 125 124 124 123 117 112 107 103 101 99 98 97 95 93 91 88 85 82 78 74 71 69 68 69 72 76 79 81 82 82 81 80 79 78 75 71 67 63 60 57 51 42 29 7 357 355 354 353 352 350 345 338 336 341 360 23 29 27 24 26 28 31 33 33 32 31 29 28 28 29 29 27 25 23 21 20 19 19 21 22 22 22 22 21 19 18 17 16 14 12 9 9 11 14 16
138 138 138 138 137 135 131 128 127 126 126 122 116 112 108 105 104 102 102 100 98 95 92 90 87 83 79 75 71 69 67 68 70 74 77 79 80 80 79 77 76 75 73 70 66 63 59 58 51 40 24 4 356 355 352 351 349 345 338 334 333 339 359 27 33 30 27 26 27 30 32 32 32 31 29 29 30 31 31 28 24 22 20 21 21 22 24 25 25 24 22 21 19 18 16 15 14 11 9 9 11 13 15
142 142 142 141 139 136 131 128 127 127 126 121 116 113 110 107 105 105 105 102 100 97 94 90 87 83 80 75 72 68 65 64 66 68 70 72 74 74 74 72 72 73 72 70 66 63 60 60 54 42 24 9 2 357 352 348 343 339 333 331 332 338 356 23 33 32 29 27 27 29 31 31 32 31 30 31 32 33 33 30 26 23 22 24 26 28 29 29 28 27 25 23 21 19 18 16 15 13 11 10 10 11 12
145 144 143 141 138 135 131 129 128 126 122 114 113 112 110 108 106 105 104 102 99 96 93 90 87 83 78 74 69 65 60 57 57 57 58 59 60 61 62 63 66 69 71 70 67 64 62 62 58 48 29 15 6 360 355 346 341 338 333 325 329 340 359 21 32 35 31 29 28 28 30 30 31 32 32 32 34 35 35 33 30 27 26 28 31 34 35 34 33 31 28 26 24 22 20 19 17 16 14 14 13 12 11
145 145 144 141 138 136 133 132 130 125 116 109 108 109 109 107 106 105 102 100 98 96 93 90 86 81 76 70 64 59 54 50 47 45 43 42 42 43 45 50 59 67 71 70 68 64 62 61 57 48 31 17 7 1 358 346 342 338 327 321 329 343 4 21 32 36 33 31 29 29 30 29 31 32 33 34 35 36 37 37 35 33 32 34 37 40 40 38 37 34 32 29 27 25 24 22 21 19 18 18 16 15 13
146 145 145 143 142 140 137 137 134 127 114 107 105 106 107 107 107 105 100 97 95 95 93 89 84 78 72 66 60 54 50 45 41 36 32 28 27 27 33 42 56 67 73 71 67 62 57 54 50 44 31 18 8 4 357 348 342 333 321 321 332 351 11 21 30 36 35 32 30 30 31 30 32 34 35 35 36 37 38 40 40 40 39 41 42 43 42 40 38 36 33 31 29 27 26 25 23 22 21 21 20 18 16
147 148 148 148 148 146 143 141 137 129 117 108 105 106 108 109 109 107 102 98 96 94 92 88 82 75 67 62 58 54 49 43 37 31 25 21 20 23 30 44 59 70 75 72 67 58 54 53 49 41 28 16 2 357 356 351 339 326 320 324 338 357 14 21 29 35 35 33 31 31 32 32 34 36 37 37 36 37 39 43 45 45 45 45 45 44 43 40 38 35 33 31 29 28 26 25 25 24 23 22 21 19 18
152 153 152 154 155 153 148 144 139 131 120 113 110 110 111 111 111 109 106 102 99 96 93 88 80 70 64 61 58 54 49 42 36 29 23 19 19 24 36 53 66 74 78 72 65 58 58 55 53 45 26 15 2 355 352 348 332 323 323 330 343 1 15 21 29 34 36 34 32 32 33 32 35 38 40 39 37 37 40 46 49 49 48 47 46 44 42 40 37 35 33 31 29 28 26 25 24 24 23 22 20 19 18
156 155 154 157 160 159 152 146 139 132 124 119 116 115 113 112 111 110 108 105 103 100 96 86 74 65 61 60 57 53 47 40 34 30 25 23 25 34 49 62 70 76 79 72 63 57 52 53 54 51 42 19 8 356 348 342 328 324 328 335 348 3 15 20 28 34 36 35 34 34 35 33 35 39 42 40 39 39 43 48 51 51 49 47 46 44 42 39 36 34 32 31 29 27 26 25 24 24 23 22 20 18 17
158 157 155 159 162 161 150 142 136 130 126 122 119 117 114 110 107 105 102 101 100 98 92 77 65 59 57 55 52 48 40 35 33 30 28 31 37 46 59 65 70 73 73 70 62 53 48 48 48 45 39 30 15 357 349 336 327 327 331 339 352 7 16 19 26 32 36 36 37 37 37 35 36 40 43 42 40 41 46 49 51 51 49 47 46 44 42 39 37 35 32 31 29 27 26 25 24 23 23 21 19 17 17
157 156 155 158 160 156 135 125 120 119 119 116 112 108 105 101 97 91 82 79 77 73 68 62 57 52 50 48 45 40 33 31 32 33 30 38 45 52 62 65 67 67 66 65 61 54 49 48 47 40 26 34 20 357 348 328 325 328 333 343 357 11 17 19 24 30 36 38 39 40 41 38 38 40 42 41 41 42 46 49 50 50 49 47 46 44 43 41 38 36 33 31 29 27 26 24 24 23 22 20 18 16 15
155 156 157 159 159 153 132 122 119 117 115 106 95 84 75 72 69 65 57 54 52 50 51 51 50 46 43 42 40 38 35 37 44 47 41 45 49 53 60 63 63 62 61 60 60 59 54 52 54 52 31 30 14 356 347 322 322 328 335 350 4 15 19 20 24 29 36 39 42 44 45 43 43 42 42 41 41 42 45 48 50 50 50 48 47 45 44 42 40 38 35 32 29 27 25 23 22 22 20 18 17 16 15
154 157 160 162 164 162 152 142 133 123 108 90 78 66 55 52 52 52 50 46 44 43 44 46 44 40 37 36 38 41 40 49 59 64 62 54 52 53 57 60 61 60 58 56 57 57 53 53 57 60 44 26 7 352 344 317 321 329 341 0 13 20 21 21 23 28 36 41 45 48 50 49 47 46 43 41 39 40 42 47 50 51 51 49 48 46 44 43 41 39 36 32 29 26 23 21 20 19 19 17 16 15 14
139 145 154 157 160 161 146 125 104 87 75 72 71 66 54 49 49 50 50 46 43 42 42 44 40 32 26 25 34 47 50 64 76 80 76 70 65 62 60 61 62 61 58 54 54 56 55 54 54 52 46 33 7 348 336 321 324 334 356 13 23 26 25 22 24 30 39 44 48 53 56 54 52 48 45 41 39 38 40 44 49 52 53 51 49 46 44 42 41 39 36 32 28 25 21 19 17 16 16 16 16 16 14
121 118 118 113 107 96 73 58 61 65 62 63 69 73 58 51 50 51 50 46 42 40 40 40 36 26 13 15 28 46 53 73 87 91 84 74 69 66 64 62 63 63 61 59 59 62 62 58 49 42 45 35 13 345 329 332 336 348 15 27 33 33 29 26 27 32 43 49 55 59 61 59 55 50 46 42 40 38 38 43 48 52 54 52 49 46 43 41 40 38 35 31 27 23 20 17 15 14 13 14 15 15 15
138 136 123 105 90 80 72 65 68 71 64 60 68 81 74 58 53 52 50 46 41 37 35 35 32 25 8 15 30 45 49 69 89 97 95 82 71 67 65 62 63 64 64 65 69 73 71 64 52 45 45 33 13 340 328 342 351 3 28 40 42 40 35 30 30 35 48 56 63 66 64 61 58 53 49 45 43 41 40 44 48 52 53 51 48 45 42 40 38 36 34 29 25 21 18 16 14 12 11 13 14 15 14
152 155 150 136 118 103 96 92 87 78 70 58 69 89 92 78 61 54 50 48 41 35 33 34 31 23 11 36 51 57 57 67 77 85 93 90 83 75 69 63 63 65 69 73 78 81 80 68 56 49 45 32 9 340 330 345 355 8 32 48 51 48 40 34 33 38 53 66 72 71 67 64 60 56 52 49 48 47 47 48 50 52 52 49 46 43 40 38 36 34 32 28 23 19 16 15 13 12 11 12 13 13 13
164 167 166 156 136 119 106 105 99 92 84 64 68 89 95 85 72 57 47 43 38 34 34 37 35 31 36 68 74 73 72 76 74 71 70 78 82 82 76 66 63 66 73 78 82 85 84 70 54 41 36 24 5 341 335 344 351 2 29 53 60 57 47 38 36 41 61 76 78 75 69 64 61 57 54 52 51 51 54 53 54 54 52 49 45 41 38 35 34 32 31 26 22 19 17 15 14 13 12 12 12 12 11
172 178 176 169 154 136 120 111 106 102 96 88 78 84 89 92 84 66 45 42 39 39 44 49 52 57 71 87 91 91 91 94 87 78 64 59 66 78 82 73 68 66 69 76 80 80 78 66 52 30 16 6 352 340 339 344 349 357 23 62 71 65 53 43 38 44 67 80 81 77 70 65 61 58 55 52 51 52 56 56 56 55 53 50 45 40 35 32 31 30 29 26 23 20 18 16 14 13 12 12 11 10 10
179 185 182 176 165 151 139 128 118 109 104 108 104 95 95 94 91 76 54 52 45 43 49 62 65 71 83 95 102 106 113 111 96 83 69 57 53 62 82 79 74 69 69 76 76 66 56 39 27 14 355 344 338 340 343 346 349 354 13 75 84 74 61 49 42 45 70 79 79 76 70 65 62 59 57 52 50 49 52 55 55 54 53 50 46 40 33 30 28 28 28 27 24 21 19 17 15 13 12 12 11 10 10
184 189 183 176 170 168 166 152 140 131 125 130 124 118 142 268 67 85 74 70 46 32 34 49 58 73 95 100 109 117 123 111 95 81 70 63 53 50 69 80 74 66 65 74 72 61 41 21 5 348 327 328 337 343 344 343 346 349 357 84 93 83 67 56 47 48 67 76 76 74 69 66 63 61 58 54 51 49 49 52 52 52 51 49 46 41 32 28 27 28 28 27 24 22 19 17 15 13 12 12 11 10 10
190 190 182 179 180 184 189 178 168 157 148 149 147 139 134 238 260 93 94 88 67 50 48 58 66 88 111 112 119 124 124 108 92 82 70 66 57 48 52 74 73 64 52 52 49 41 23 8 351 333 317 328 341 348 344 336 339 341 340 94 100 90 73 63 57 59 69 75 75 74 70 67 64 62 59 56 54 51 48 49 49 50 49 47 44 39 32 28 27 27 28 26 24 22 19 16 14 12 10 11 11 11 10
194 191 184 184 188 194 200 196 185 172 159 166 175 181 154 132 134 155 169 110 98 93 102 101 116 131 128 125 127 126 117 106 98 89 73 67 56 42 29 64 71 67 49 38 27 13 1 354 341 331 323 333 343 348 347 331 329 333 340 108 108 95 78 68 65 68 74 76 77 75 72 69 66 64 61 59 56 53 50 49 48 47 47 46 42 38 33 29 28 27 27 25 23 21 18 15 12 10 9 10 11 11 11
196 191 187 188 193 201 205 204 196 183 168 177 194 203 168 135 132 147 153 158 152 139 132 131 145 153 140 130 124 118 111 106 102 98 86 75 64 51 40 52 61 59 46 31 20 9 1 343 336 329 327 330 336 346 350 337 331 333 352 119 116 101 83 72 70 73 79 81 81 79 77 74 70 67 64 61 58 55 52 50 48 47 46 43 41 37 34 31 28 26 25 24 22 19 17 14 11 9 7 9 10 11 11
195 190 190 193 200 205 205 208 206 199 180 183 192 193 148 139 138 135 136 168 186 187 175 161 165 165 153 132 113 95 88 94 99 101 98 89 73 58 42 36 41 47 36 20 17 17 7 348 337 329 320 318 329 344 352 340 331 333 17 129 123 108 90 75 69 69 76 81 82 82 81 77 73 70 66 62 59 56 53 51 49 47 46 44 41 38 35 31 28 26 24 22 20 18 15 12 10 7 6 9 10 11 11
194 192 193 199 204 206 203 211 215 211 189 186 187 183 159 153 142 131 119 109 99 100 115 137 144 145 136 119 106 88 69 73 90 106 109 96 79 56 30 21 27 31 7 349 2 16 9 345 334 328 316 312 324 341 349 340 330 328 330 131 127 118 103 83 70 66 69 75 79 81 81 78 74 70 66 62 59 56 52 49 47 46 44 42 40 38 35 32 29 26 24 22 19 17 14 11 9 7 8 10 11 11 11
195 196 197 203 205 205 204 214 217 212 191 190 192 188 172 153 132 114 104 95 89 85 88 102 108 107 100 103 101 94 77 69 77 103 119 103 79 40 356 12 19 15 342 331 343 356 355 338 337 332 315 309 319 336 350 347 344 336 328 92 134 132 118 98 78 65 60 65 70 75 77 75 72 68 64 61 57 53 49 46 43 41 39 38 38 37 35 32 29 26 23 21 18 15 11 9 9 9 10 12 12 12 11
195 197 199 203 204 206 210 217 216 210 193 193 193 185 166 145 130 118 108 107 103 100 97 105 106 102 93 98 102 100 90 81 78 91 115 104 77 18 343 8 11 357 330 325 331 336 329 333 341 338 313 312 321 338 357 359 354 343 333 346 70 141 131 117 91 66 51 52 57 63 68 67 65 63 60 56 52 49 45 41 38 35 33 32 32 31 32 30 28 26 23 21 18 14 10 9 9 11 12 13 13 12 10
194 197 199 202 204 209 214 217 215 205 192 190 182 168 155 147 140 133 126 124 122 118 116 121 119 113 101 102 109 114 111 111 113 112 106 87 55 2 344 6 1 346 321 325 330 328 313 339 355 351 326 326 333 347 7 8 359 349 2 352 339 337 76 83 62 42 33 31 36 43 52 55 55 54 53 50 47 44 40 36 33 29 27 26 25 25 27 27 25 24 22 20 17 13 9 9 10 12 14 14 13 11 9
194 197 200 203 206 209 215 215 210 199 190 180 166 157 155 152 152 150 145 144 139 136 134 134 130 123 107 106 118 127 126 138 147 149 121 66 15 347 350 1 352 336 319 326 329 324 311 2 8 357 344 341 341 352 7 13 9 2 14 6 345 341 354 5 13 17 15 14 15 19 25 33 38 41 42 42 40 38 35 31 28 24 21 19 18 19 21 21 21 21 19 17 15 12 9 9 11 12 14 14 12 10 7
194 196 201 205 209 213 216 212 200 186 178 169 165 162 162 158 159 161 158 159 154 149 147 140 127 113 94 87 97 113 113 158 165 154 119 65 339 345 354 354 345 330 315 315 312 314 334 19 16 1 353 342 345 359 14 25 29 28 16 33 30 12 351 353 1 8 9 8 6 5 5 8 14 20 25 28 30 30 28 26 23 18 14 12 11 12 14 16 17 17 16 14 12 10 8 8 9 11 13 12 11 8 5
196 198 202 206 211 215 218 205 186 172 167 165 166 168 167 159 159 163 162 163 161 158 155 145 131 113 90 84 88 88 67 57 93 107 82 355 323 342 355 347 335 321 304 295 299 324 13 24 19 6 355 347 351 3 16 47 53 48 35 28 48 61 11 347 2 15 17 7 5 4 359 357 357 360 4 10 16 19 20 20 17 13 9 6 5 5 7 10 11 12 12 11 10 8 6 5 6 8 10 10 9 6 2
199 202 205 209 213 215 214 193 175 166 166 167 169 169 172 166 166 167 165 158 155 156 162 154 151 148 144 144 144 119 72 50 50 54 48 330 316 333 351 339 325 308 294 293 318 14 34 25 12 1 4 9 2 2 47 64 62 58 52 43 33 30 65 276 318 34 36 17 7 3 358 354 353 352 353 357 3 9 11 11 10 7 3 360 358 358 0 3 6 7 7 6 5 4 2 2 3 4 6 7 6 3 359
201 205 208 212 214 212 205 187 175 167 168 170 169 169 177 180 179 176 169 159 150 144 154 164 166 167 169 169 164 146 114 73 55 45 26 331 322 333 340 321 306 297 299 321 2 27 29 19 4 2 30 34 7 70 82 71 66 61 61 56 46 36 24 247 248 33 37 34 18 5 358 356 355 354 352 356 1 5 6 5 4 1 357 354 352 352 353 357 359 1 1 1 1 360 359 358 359 360 1 3 2 360 357
202 206 210 214 214 209 200 184 175 169 171 172 171 172 181 188 186 177 170 165 157 147 138 134 179 175 165 166 164 154 140 127 83 37 350 322 320 327 322 301 300 319 335 1 15 22 16 356 349 359 70 146 163 136 94 81 71 63 60 59 56 53 61 45 26 28 32 38 30 14 359 358 358 358 357 1 5 7 6 3 0 357 352 348 346 345 347 351 353 355 355 355 355 355 355 354 354 355 356 358 358 356 353
202 205 210 213 211 203 192 178 172 171 171 171 172 175 182 182 176 169 169 167 161 152 136 86 35 125 153 162 163 164 162 157 140 85 323 305 297 310 308 308 347 11 9 13 17 15 6 340 328 337 107 166 157 132 101 86 71 61 59 60 60 61 64 59 52 45 36 35 39 33 358 356 360 1 2 6 9 9 7 3 359 354 348 343 340 339 341 344 347 349 349 349 349 350 350 349 349 349 350 352 353 352 350
204 206 209 212 208 196 182 172 169 168 169 169 171 174 177 166 159 157 161 163 161 155 140 106 62 52 155 166 169 172 177 169 153 134 209 268 249 93 48 27 23 20 16 19 19 14 356 336 335 3 94 163 147 125 106 93 78 67 61 61 65 68 67 62 55 46 33 24 19 26 28 358 359 4 9 11 12 12 9 5 359 352 345 338 335 334 335 339 341 343 342 342 343 344 344 345 344 344 344 346 347 348 346
205 206 208 210 205 194 181 172 167 164 166 166 168 170 168 159 158 159 158 160 163 160 149 125 90 64 21 106 163 165 169 145 133 130 140 119 96 79 66 44 29 18 15 26 26 17 359 10 19 34 91 124 113 109 108 100 93 86 85 81 81 80 74 66 57 47 39 35 36 38 28 21 16 17 17 17 18 16 13 9 3 356 347 340 335 333 333 336 338 338 336 336 336 337 339 339 339 338 338 339 341 342 342
203 203 204 206 202 193 180 171 165 161 164 165 167 169 169 167 169 171 170 171 173 170 155 138 118 88 54 48 57 79 87 95 111 120 112 91 72 66 63 49 33 20 17 25 26 24 27 49 58 64 87 91 86 81 91 95 99 104 113 101 95 88 81 71 62 53 47 46 49 49 40 39 36 34 35 31 26 20 16 14 11 6 360 353 346 341 337 339 338 335 332 330 330 331 333 333 333 333 332 333 334 336 336
201 201 203 202 198 191 176 170 166 164 167 169 173 178 181 180 182 183 183 181 182 180 163 148 139 124 90 70 64 63 70 92 117 128 113 82 60 54 54 43 34 25 23 20 23 32 48 53 63 65 56 66 66 61 58 75 97 114 124 112 102 91 84 78 68 60 55 60 61 59 58 57 50 44 45 42 36 27 25 20 18 16 13 8 2 356 350 347 342 336 330 326 325 326 327 328 328 328 327 328 329 331 331
201 201 202 199 194 187 174 172 170 169 174 179 186 191 194 190 189 189 188 184 179 172 159 150 146 142 131 104 84 78 86 105 142 171 145 113 77 51 40 25 19 20 31 19 20 30 54 57 63 62 46 46 46 47 48 55 86 111 119 115 106 95 87 80 73 66 64 73 75 73 73 71 65 59 59 53 47 40 35 27 21 18 17 13 9 4 359 354 347 339 331 325 322 321 322 323 323 324 323 324 325 326 327
201 200 200 195 191 185 175 177 177 177 182 189 196 201 200 193 190 188 185 176 161 141 125 126 137 146 150 153 142 121 107 120 186 220 171 125 110 100 84 26 10 7 30 30 24 30 48 55 58 53 41 37 35 36 35 40 69 97 108 116 110 101 91 85 79 75 76 81 82 80 79 77 74 70 67 63 56 50 43 35 25 17 14 10 6 3 359 353 346 339 331 324 320 319 319 320 320 320 321 321 322 323 324
200 199 195 191 190 188 181 181 182 185 189 196 200 199 189 184 182 180 173 163 150 133 118 95 73 127 170 170 159 138 123 135 195 209 127 98 134 171 164 98 14 359 10 31 41 39 39 52 53 47 36 32 30 28 33 37 66 92 104 115 115 110 101 94 90 89 89 89 87 86 83 80 77 75 71 66 60 53 47 40 30 18 11 4 0 358 354 349 342 336 330 324 321 318 318 318 318 318 319 319 320 321 322
200 198 194 191 191 191 186 184 184 187 189 194 192 181 168 172 174 173 168 169 169 164 147 131 96 35 16 141 134 122 112 177 224 216 136 86 54 39 134 147 185 10 30 230 181 162 79 50 48 42 28 28 28 28 30 34 68 98 110 118 120 119 113 107 103 101 104 103 98 91 85 82 79 76 73 68 63 56 48 43 34 24 14 2 356 351 345 338 333 330 327 324 321 319 317 316 316 316 317 318 319 320 321
200 199 194 192 193 192 186 184 185 186 182 180 173 164 160 168 172 175 178 181 183 181 170 155 138 104 50 76 94 107 109 251 258 242 127 114 90 37 352 273 235 276 6 318 208 186 185 198 196 181 45 18 21 26 27 27 78 114 123 129 128 125 120 117 114 120 129 120 110 100 90 87 82 77 76 71 65 61 54 44 36 27 16 1 347 336 328 323 324 324 324 323 321 320 318 315 314 313 314 316 318 319 320
201 200 195 193 191 189 180 183 187 187 181 177 174 172 171 175 178 181 187 190 191 189 183 165 150 137 121 112 117 128 135 167 290 290 108 129 131 128 25 359 359 2 7 317 229 202 196 205 220 223 177 3 357 1 20 21 88 124 132 138 135 130 127 129 140 159 159 134 123 112 105 99 92 81 57 69 69 64 59 49 39 26 9 345 331 322 312 312 317 320 321 322 322 320 317 314 312 311 311 314 316 318 319
201 200 195 193 189 184 179 184 187 188 187 182 179 177 178 184 186 187 189 194 195 193 190 179 162 148 143 153 157 152 140 127 317 305 241 149 147 144 124 86 71 57 293 287 261 224 199 185 255 275 242 333 317 292 265 355 127 150 173 154 148 143 139 148 169 178 167 142 133 129 133 131 149 202 227 182 105 78 57 41 21 341 304 300 286 281 281 302 316 321 321 322 321 319 315 312 310 308 309 312 314 317 318
200 200 196 194 190 185 183 185 185 186 191 187 182 180 181 188 192 193 193 196 195 192 187 186 179 171 160 170 171 164 147 136 149 269 243 236 179 150 139 127 117 118 212 236 248 246 227 28 317 282 244 202 212 218 197 184 189 208 202 174 163 161 157 171 183 180 167 155 159 201 220 206 210 218 228 218 206 201 218 253 259 256 246 244 243 254 271 301 313 317 317 318 318 316 313 308 306 306 307 310 313 317 319
199 199 198 196 192 188 183 184 184 185 189 189 187 186 187 192 196 197 197 198 196 193 189 187 190 191 180 171 166 163 156 152 168 219 198 297 324 7 140 146 154 168 185 199 219 231 37 352 290 253 186 131 179 208 189 173 208 246 237 223 219 214 192 197 204 200 185 181 190 212 224 225 225 224 223 220 214 212 220 236 246 245 234 230 231 238 245 265 277 283 290 298 304 307 307 305 304 305 306 311 315 319 322
197 197 199 197 193 187 181 183 183 184 186 191 193 193 192 193 194 196 198 199 199 198 196 190 192 196 194 168 155 155 163 162 160 153 104 54 12 350 320 198 186 185 188 196 195 166 83 225 251 247 133 131 185 225 231 257 257 253 253 248 250 254 250 241 236 233 223 212 207 210 218 224 225 222 214 217 215 214 213 228 237 239 229 219 213 212 212 217 216 214 232 251 272 287 297 301 305 308 311 316 320 323 324
197 196 198 196 193 189 183 183 183 183 185 192 195 195 192 190 192 195 199 200 202 202 200 193 191 192 192 166 146 148 170 176 169 152 130 91 47 33 13 6 349 338 332 337 66 125 134 177 233 261 19 164 179 183 195 261 253 242 236 233 241 256 264 251 239 229 223 217 213 210 214 219 222 222 219 217 215 213 214 227 233 234 227 216 208 205 207 209 205 201 205 228 258 287 302 310 313 315 319 322 325 326 326
197 195 197 196 194 192 188 186 184 184 186 190 192 192 192 195 198 199 200 202 201 199 196 197 195 190 180 171 159 160 184 188 177 156 148 154 118 79 76 79 64 43 38 23 23 104 156 174 187 191 65 273 222 166 154 197 228 236 236 234 242 253 258 246 236 226 218 216 215 215 214 210 211 213 216 216 216 215 214 226 232 231 223 214 204 202 206 206 205 217 243 265 289 308 318 322 323 325 326 327 327 327 326
197 195 196 195 195 194 191 188 186 186 186 187 188 191 196 201 202 202 201 203 200 196 193 199 199 191 173 178 180 185 195 193 180 163 157 161 158 145 144 126 109 96 90 74 49 353 267 212 172 158 157 223 261 263 201 184 196 223 244 247 250 251 248 240 232 226 223 219 219 220 222 212 205 205 209 212 216 220 223 227 230 229 220 212 204 202 205 195 202 224 245 263 284 307 329 329 329 329 329 328 328 326 325
197 195 195 195 196 196 193 190 189 189 187 187 189 193 200 203 203 202 199 201 198 195 194 198 198 191 179 187 194 197 196 184 178 178 182 172 161 151 151 133 117 105 100 90 76 50 12 19 94 153 167 171 212 265 263 226 205 211 216 216 230 244 245 236 229 225 228 226 224 224 228 222 212 205 204 208 213 220 227 228 227 224 220 209 202 198 206 207 214 224 231 244 271 303 338 336 334 331 329 327 326 325 324